This demonstration page uses our WeatherBlox Daily Observations layout. Learn more.

Left ArrowRight Arrow

Hourly Observations for December 18, 2019

Temp ( °F °C ) Dew Point ( °F °C ) Humidity (%) Winds ( mph kmh ) Pressure ( in mb ) Visibility ( mi km ) Precip ( " mm )
12:53 am 00:53 Clear 35 1.7 21 -6.1 57 57 WSW 26 43 29.85 1011 10 16 0.00 0.00
1:53 am 01:53 Clear 33 0.6 21 -6.1 61 61 WSW 17 28 29.88 1012 10 16 0.00 0.00
2:53 am 02:53 Clear 32 0 20 -6.7 61 61 SW 20 31 29.89 1012 10 16 0.00 0.00
3:53 am 03:53 Clear 32 0 20 -6.7 61 61 SW 21 33 29.89 1012 10 16 0.00 0.00
4:53 am 04:53 Clear 32 0 20 -6.7 61 61 SW 21 33 29.90 1013 10 16 0.00 0.00
5:53 am 05:53 Clear 33 0.6 20 -6.7 58 58 SW 14 22 29.91 1013 10 16 0.00 0.00
6:53 am 06:53 Clear 33 0.6 20 -6.7 58 58 SW 15 24 29.91 1013 10 16 0.00 0.00
7:53 am 07:53 Clear 34 1.1 19 -7.2 54 54 SW 6 9 29.93 1013 10 16 0.00 0.00
8:53 am 08:53 Sunny 35 1.7 17 -8.3 48 48 SSW 10 17 29.94 1014 10 16 0.00 0.00
9:53 am 09:53 Sunny 35 1.7 18 -7.8 50 50 SW 16 26 29.95 1014 10 16 0.00 0.00
10:53 am 10:53 Sunny 36 2.2 19 -7.2 50 50 SW 22 35 29.93 1014 10 16 0.00 0.00
11:53 am 11:53 Sunny 37 2.8 21 -6.1 52 52 SW 18 30 29.92 1013 10 16 0.00 0.00
12:53 pm 12:53 Sunny 37 2.8 20 -6.7 50 50 SW 14 22 29.92 1013 10 16 0.00 0.00
1:53 pm 13:53 Sunny 36 2.2 21 -6.1 55 55 SW 9 15 29.90 1013 10 16 0.00 0.00
2:53 pm 14:53 Sunny 38 3.3 21 -6.1 51 51 SSW 12 19 29.90 1013 10 16 0.00 0.00
3:53 pm 15:53 Sunny 34 1.1 20 -6.7 56 56 SW 8 13 29.90 1013 10 16 0.00 0.00
4:53 pm 16:53 Clear 33 0.6 18 -7.8 54 54 SSW 13 20 29.89 1012 10 16 0.00 0.00
5:53 pm 17:53 Clear 31 -0.6 17 -8.3 56 56 SSW 13 20 29.87 1011 10 16 0.00 0.00
6:53 pm 18:53 Clear 33 0.6 16 -8.9 49 49 SW 14 22 29.86 1011 10 16 0.00 0.00
7:53 pm 19:53 Clear 29 -1.7 15 -9.4 56 56 ENE 3 6 29.85 1011 10 16 0.00 0.00
8:53 pm 20:53 Clear 28 -2.2 14 -10 56 56 SW 5 7 29.85 1011 10 16 0.00 0.00
9:53 pm 21:53 Clear 21 -6.1 14 -10 74 74 ENE 3 6 29.84 1011 10 16 0.00 0.00
10:53 pm 22:53 Clear 22 -5.6 17 -8.3 82 82 ESE 5 7 29.83 1010 10 16 0.00 0.00
11:53 pm 23:53 Clear 19 -7.2 15 -9.4 84 84 Calm 29.83 1010 10 16 0.00 0.00

Powered by AerisWeather